TIME,DELAY(SENSOR),PRES,T(CTD),SAL,OXYGEN,RAWTEMP,T(OPTODE),TCPHASE,FLUOR,BETA(BETA700),BETA(BETA412),BETA(BETA440),CDOM,C(CSC),ED(ED411.90),ED(ED443.80),ED(ED489.40),ED(ED554.70),LU(LU412.20),LU(LU443.80),LU(LU489.40),LU(LU555.00),COMP,TILTX,TILTX(TILTY),CHECK
1352906968,5803,494.4500122070312500,17.3113994598388670,36.4269981384277340,227.1268005371093800,192.5955047607422000,17.3069190979003900,32.2046089172363300,50,100,69,63,51,1576,2147483163,2147771346,2147554779,2147794578,2147314816,2147481417,2147711606,2148244516,2284,7,12,14382
1352907089,5798,483.4500122070312500,17.3250007629394530,36.4225997924804700,223.6188049316406200,191.9933929443359400,17.3252391815185550,32.3746490478515600,50,99,69,63,50,1579,2147486025,2147769380,2147557376,2147793819,2147314432,2147482404,2147708836,2148247506,3114,7,13,60616
1352907213,5804,472.2600097656250000,17.4764003753662100,36.4504013061523440,223.8339996337890600,187.2814025878906200,17.4686107635498050,32.2988815307617200,49,100,68,63,52,1581,2147485979,2147770358,2147556150,2147794514,2147317924,2147479204,2147709997,2148243803,177,7,13,359
1352907334,5802,461.6000061035156000,17.5545005798339840,36.4659996032714840,225.2908020019531200,184.3278045654297000,17.5584793090820300,32.1837387084960940,49,101,68,64,51,1580,2147486665,2147768658,2147556370,2147792256,2147317385,2147483849,2147708489,2148242486,668,7,13,29876
1352907469,5804,450.0000000000000000,17.6700000762939450,36.4874000549316400,227.3318939208984400,180.6934967041015600,17.6690902709960940,32.0309906005859400,49,100,68,63,51,1583,2147486619,2147768109,2147557997,2147793334,2147319058,2147480210,2147712265,2148245412,1283,7,13,53470
1352907590,5804,439.7000122070312500,17.7483005523681640,36.5023002624511700,228.2611999511718800,178.2142028808593800,17.7445507049560550,31.9507293701171880,49,100,69,62,52,1584,2147490377,2147769106,2147554496,2147791771,2147316598,2147482569,2147706541,2148243867,1582,7,13,28424
1352907722,5804,428.9200134277344000,17.8152008056640620,36.5147018432617200,229.5899047851562500,175.9263000488281200,17.8141994476318360,31.8533000946044920,50,100,68,63,51,1584,2147488402,2147765714,2147557531,2147793682,2147319488,2147479387,2147708534,2148245668,2493,7,12,7578
1352907867,5804,417.2699890136719000,17.8624992370605470,36.5190010070800800,229.1128997802734400,174.4539947509765600,17.8590202331542970,31.8570995330810550,49,101,69,62,51,1585,2147491446,2147767698,2147556525,2147790363,2147311954,2147482139,2147709165,2148243373,3209,7,13,3965
1352907999,5803,407.0799865722656000,17.8948001861572270,36.5237007141113300,229.0467071533203000,173.3787994384765600,17.8917503356933600,31.8457298278808600,49,101,69,64,51,1586,2147489700,2147767442,2147555638,2147791378,2147306276,2147481901,2147711460,2148244004,2868,7,12,38927
1352908145,5802,394.3999938964844000,17.9678993225097660,36.5326004028320300,227.7272949218750000,170.9799957275390600,17.9647903442382800,31.8790206909179700,50,100,69,64,51,1587,2147491227,2147766134,2147556452,2147793691,2147314349,2147485412,2147708096,2148245924,2659,7,12,46195
1352908255,5805,383.2699890136719000,18.0331001281738280,36.5374984741210940,226.0738983154297000,168.6358032226562500,18.0361690521240230,31.9300498962402340,49,100,69,63,51,1585,2147490541,2147766482,2147554925,2147789037,2147319250,2147481097,2147705152,2148242230,221,7,12,40873
1352908365,5804,372.0700073242187500,18.1208000183105470,36.5527992248535160,225.7570037841797000,165.8477020263672000,18.1210803985595700,31.9082508087158200,50,100,68,63,51,1586,2147488640,2147766948,2147555081,2147791881,2147308800,2147485184,2147709056,2148243300,736,7,12,51555
1352908477,5805,360.7699890136719000,18.2077999114990230,36.5665016174316400,227.6519012451172000,163.0643005371093800,18.2058696746826170,31.7754497528076170,50,100,69,62,52,1585,2147492041,2147769216,2147557504,2147792566,2147310409,2147484306,2147703661,2148242285,740,7,12,11510
1352908587,5805,349.3599853515625000,18.2835998535156250,36.5745010375976560,226.8713073730468800,160.6145019531250000,18.2805004119873050,31.7815303802490230,50,101,69,63,52,1586,2147489344,2147767021,2147554459,2147788672,2147302436,2147480265,2147705600,2148242916,1020,7,12,58890
1352908697,5805,337.9100036621094000,18.3488006591796880,36.5754013061523440,222.8497924804687500,157.5704956054687500,18.3732490539550780,31.9436302185058600,50,100,68,63,52,1588,2147489472,2147767780,2147556059,2147789805,2147309083,2147484059,2147706742,2148241088,928,7,12,52532
1352908813,5802,326.7900085449219000,18.4797992706298830,36.6004981994628900,225.8780059814453000,154.1194000244140600,18.4784202575683600,31.7436695098876950,49,99,68,63,51,1590,2147490834,2147768146,2147556086,2147790144,2147315026,2147486208,2147708251,2148240768,1090,7,13,65039
1352908945,5798,315.6300048828125000,18.5638008117675780,36.6081008911132800,224.5410003662109400,150.9602050781250000,18.5747108459472660,31.7684593200683600,50,101,69,63,52,1591,2147492141,2147768448,2147557522,2147786486,2147313124,2147487515,2147704950,2148243410,1379,6,12,47158
1352909080,5801,304.2300109863281000,18.6868991851806640,36.6147994995117200,224.1026000976562500,147.1719055175781200,18.6902198791503900,31.7393608093261720,50,100,68,63,52,1590,2147494811,2147765074,2147558290,2147788288,2147310546,2147483163,2147704813,2148239990,1444,7,12,47740
1352909212,5804,293.0499877929687500,18.7777996063232420,36.6223983764648440,221.5830993652343800,144.4281005859375000,18.7738895416259770,31.8307304382324220,50,102,68,63,51,1592,2147494171,2147764214,2147557686,2147789056,2147311451,2147486765,2147709540,2148240100,2465,7,13,58323
1352909344,5803,282.1000061035156000,18.8367996215820300,36.6262016296386700,217.5207977294922000,142.3786010742187500,18.8363990783691400,32.0139007568359400,50,101,69,63,50,1592,2147493147,2147768740,2147562276,2147786697,2147308891,2147483483,2147708214,2148237302,2311,7,13,63651
1352909478,5803,271.1900024414062500,18.9333992004394530,36.6203994750976560,216.0263061523437500,139.1963958740234400,18.9334793090820300,32.0493888854980500,50,100,69,62,51,1592,2147491666,2147767396,2147564790,2147789787,2147317147,2147486912,2147710720,2148240036,2381,7,12,27084
1352909621,5803,260.3500061035156000,19.0289993286132800,36.6074981689453100,222.8159027099609400,136.1105041503906200,19.0276393890380860,31.6562004089355470,50,99,69,62,52,1590,2147493467,2147768768,2147568265,2147788790,2147310500,2147488932,2147707181,2148236763,1289,6,13,11528
1352909762,5803,249.1199951171875000,19.1625003814697270,36.5987014770507800,231.5643005371093800,131.4617004394531200,19.1695404052734380,31.1599197387695300,50,98,69,63,52,1593,2147495396,2147769764,2147568914,2147787593,2147309586,2147486217,2147707355,2148234980,1133,8,12,17998
1352909883,5804,237.8000030517578000,19.2567996978759770,36.5917015075683600,238.6042022705078000,128.6416931152343800,19.2556400299072270,30.7874908447265620,50,101,69,64,51,1594,2147494857,2147770989,2147570642,2147787392,2147305947,2147488411,2147712859,2148239926,1475,7,12,3115
1352910007,5802,226.6399993896484400,19.2982006072998050,36.5848007202148440,242.1961975097656200,127.2742996215820300,19.2973995208740230,30.6034107208251950,49,99,68,63,51,1594,2147498560,2147769554,2147575021,2147788096,2147313709,2147488667,2147713490,2148235154,1779,7,12,35732
1352910139,5803,215.1300048828125000,19.3820991516113280,36.5872001647949200,244.2075958251953000,124.4822998046875000,19.3826694488525400,30.4750099182128900,50,100,68,64,50,1593,2147497947,2147775707,2147584091,2147790409,2147305910,2147492205,2147719945,2148237668,3043,7,12,53959
1352910271,5803,204.0399932861328000,19.4874992370605470,36.5928993225097660,243.7221984863281200,121.1796035766601600,19.4835796356201170,30.4541702270507800,50,100,68,64,51,1594,2147495360,2147780690,2147600192,2147787382,2147309586,2147496758,2147731620,2148236187,3444,7,12,11026
1352910356,5800,197.5599975585937500,19.5133991241455080,36.5956001281738300,243.8755950927734400,120.1793975830078100,19.5141391754150400,30.4338207244873050,50,102,68,63,50,1594,2147494482,2147783040,2147614445,2147784996,2147308342,2147499931,2147733833,2148237440,3582,7,13,44251
1352910411,5802,193.6799926757812500,19.5841999053955080,36.6030998229980500,243.2756958007812500,117.6072998046875000,19.5927505493164060,30.4277801513671880,50,103,70,63,51,1595,2147500306,2147785005,2147622646,2147788150,2147313307,2147498304,2147739538,2148237001,294,8,12,59227
1352910466,5801,189.9700012207031200,19.6529006958007800,36.6096992492675800,242.7030944824218800,115.4791030883789000,19.6578006744384770,30.4259891510009770,50,101,68,63,50,1594,2147499986,2147789942,2147636534,2147783195,2147308388,2147505234,2147747254,2148237942,554,8,12,7172
1352910521,5804,186.3200073242187500,19.7481994628906250,36.6188011169433600,242.3280029296875000,112.6184005737304700,19.7452793121337900,30.4058494567871100,50,101,68,63,52,1595,2147501101,2147797330,2147646134,2147780571,2147306980,2147507657,2147747894,2148238235,493,7,12,49656
1352910587,5804,181.9400024414062500,19.8649997711181640,36.6414985656738300,240.0404052734375000,107.4946975708007800,19.9020004272460940,30.4442691802978500,50,100,69,62,50,1592,2147504256,2147801344,2147658980,2147784384,2147307940,2147511140,2147757769,2148239268,305,7,13,3292
1352910665,5801,177.1000061035156200,20.1672000885009770,36.7041015625000000,224.5386962890625000,99.4779663085937500,20.1473808288574220,31.0827903747558600,50,101,68,63,52,1594,2147504859,2147803977,2147677869,2147784850,2147315638,2147513142,2147765266,2148240667,379,7,13,60709
1352910731,5804,173.6600036621093800,20.2469005584716800,36.7108993530273440,219.3206024169922000,96.7591476440429700,20.2306499481201170,31.3105506896972660,50,102,68,62,52,1593,2147506605,2147812534,2147692443,2147782756,2147320036,2147520594,2147773741,2148239753,425,7,12,9390
1352910819,5803,169.3300018310547000,20.3861999511718750,36.7261009216308600,218.5402069091797000,92.2660369873046900,20.3683109283447270,31.2911891937255860,50,100,68,63,51,1596,2147511186,2147820160,2147710884,2147782564,2147318308,2147522934,2147783049,2148241545,650,7,12,19406
1352910896,5804,165.8200073242187500,20.4549007415771500,36.7234992980957000,218.8143005371093800,89.7953491210937500,20.4440402984619140,31.2448291778564450,50,101,69,63,53,1595,2147511634,2147828169,2147725961,2147780022,2147323017,2147532681,2147792722,2148239561,740,7,13,60055
1352910997,5806,161.5500030517578000,20.5256004333496100,36.7089004516601560,221.2924041748047000,87.2513885498046900,20.5220394134521500,31.0849990844726560,50,101,69,63,51,1597,2147514139,2147838354,2147739785,2147781705,2147315894,2147538468,2147800841,2148239579,578,7,13,48260
1352911085,5804,157.9600067138672000,20.6037998199462900,36.6867980957031250,226.7209930419922000,84.9529037475586000,20.5925292968750000,30.7845191955566400,51,103,69,64,52,1596,2147517988,2147844553,2147753837,2147781860,2147317915,2147536749,2147807780,2148240310,434,7,12,5403
1352911195,5805,153.5899963378906200,20.6564006805419920,36.6876983642578100,233.2778930664062500,82.9061965942382800,20.6553096771240230,30.4412708282470700,52,105,69,64,50,1598,2147525577,2147855579,2147775707,2147781476,2147324032,2147543049,2147821184,2148240201,363,7,12,7146
1352911297,5799,150.0800018310547000,20.9361000061035160,36.7038993835449200,233.8471984863281200,75.0141906738281200,20.8975601196289060,30.3123397827148440,51,104,69,63,51,1598,2147529956,2147858258,2147779355,2147778742,2147325138,2147542464,2147819949,2148239817,3377,7,12,14233
1352911484,5803,146.3800048828125000,21.0620002746582030,36.7257995605468750,233.3096923828125000,71.9039535522461000,20.9930896759033200,30.2975196838378900,51,104,69,63,50,1596,2147529097,2147850477,2147745590,2147782528,2147324461,2147544841,2147800960,2148237184,2440,7,12,45318
1352911638,5805,141.8500061035156200,21.2371997833251950,36.7477989196777340,228.3334960937500000,64.2972412109375000,21.2269096374511720,30.4375495910644530,51,102,69,63,51,1598,2147533961,2147860754,2147770651,2147781421,2147325851,2147548809,2147810761,2148238034,3098,6,13,4255
1352911748,5803,138.0700073242187500,21.3833999633789060,36.7561988830566400,225.6553039550781200,59.3746490478515600,21.3783493041992200,30.5042190551757800,52,103,68,64,51,1598,2147541915,2147874925,2147802532,2147781330,2147333915,2147558336,2147827721,2148239296,3111,7,12,55478
1352911893,5804,132.7500000000000000,21.5307006835937500,36.7639999389648440,224.4203033447265600,53.5248298645019500,21.5584392547607420,30.4894008636474600,51,104,71,64,51,1599,2147559222,2147911780,2147871817,2147779958,2147337792,2147579913,2147867163,2148242880,1808,7,12,18026
1352911959,5803,129.1000061035156200,21.7299995422363280,36.7587013244628900,223.9196014404297000,48.9383888244628900,21.6997509002685550,30.4546298980712900,52,107,70,63,51,1599,2147581147,2147957211,2147955949,2147780150,2147350939,2147601856,2147908726,2148247881,1605,8,12,18505
1352912036,5804,125.4400024414062500,21.8227996826171880,36.7221984863281250,226.5661926269531200,45.4040718078613300,21.8087100982666000,30.2794303894042970,55,111,69,63,50,1597,2147616320,2148019602,2148080557,2147782774,2147363410,2147638537,2147968612,2148249389,2502,8,12,7866
1352912135,5802,122.1900024414062500,22.2632999420166000,36.6864013671875000,232.2702941894531200,32.1612586975097660,22.2175006866455080,29.8374805450439450,59,112,70,63,50,1595,2147644498,2148079030,2148183762,2147783332,2147375259,2147663789,2148013065,2148252763,2372,7,12,14995
1352912524,5804,118.1999969482421900,22.5548000335693360,36.6666984558105500,236.3721923828125000,23.7739696502685550,22.4768600463867200,29.5404396057128900,56,108,69,64,51,1597,2147697938,2148172214,2148364050,2147782747,2147395638,2147718811,2148106459,2148258752,2066,8,12,8855
1352912823,5806,114.2699966430664000,23.1336994171142580,36.7389984130859400,226.9010925292968800,3.1560750007629395,23.1159896850585940,29.7241001129150400,55,107,69,64,51,1596,2147745746,2148238134,2148478774,2147788470,2147422838,2147756269,2148165001,2148261705,1771,8,12,57538
1352912955,5804,110.2399978637695300,23.2296009063720700,36.6212997436523440,229.0509948730468800,1.2083979845046997,23.1764907836914060,29.5967693328857420,55,112,69,64,51,1592,2147805339,2148325769,2148632210,2147789860,2147446345,2147808530,2148246354,2148267894,1887,8,12,57464
1352913188,5802,106.3099975585937500,23.4053993225097660,36.4506988525390600,232.3688964843750000,-6.9537701606750490,23.4302597045898440,29.3384304046630860,57,119,71,65,50,1588,2147929453,2148531931,2148991570,2147794953,2147504146,2147929270,2148430208,2148278966,2547,8,12,7064
1352913520,5805,101.8099975585937500,23.4347991943359380,36.3763999938964840,242.1044006347656200,-6.9507207870483400,23.4301700592041000,28.8967609405517580,57,121,72,64,50,1586,2148057810,2148718537,2149319067,2147801545,2147580955,2148053750,2148621979,2148294802,3070,8,12,25565
1352913598,5803,98.9400024414062500,23.5128002166748050,36.3694992065429700,244.0285034179687500,-8.9926147460937500,23.4937095642089840,28.7865791320800780,58,123,72,66,50,1585,2148154331,2148868827,2149580754,2147810176,2147643053,2148152777,2148776420,2148310491,3209,8,12,62570
1352913664,5802,97.3300018310546900,23.5195999145507800,36.3702011108398440,244.3719024658203000,-9.5835866928100590,23.5121097564697270,28.7641105651855470,59,123,72,65,50,1583,2148220580,2148963044,2149738578,2147817673,2147682569,2148209371,2148865910,2148316443,183,8,12,54289
1352913754,5805,95.0699996948242200,23.5319004058837900,36.3720016479492200,245.3347930908203000,-10.1154499053955080,23.5286693572998050,28.7156505584716800,58,126,71,66,50,1584,2148293001,2149078592,2149928841,2147825581,2147742884,2148290139,2148988580,2148326363,336,8,12,37975
1352913809,5804,92.8799972534179700,23.5387992858886720,36.3689002990722660,245.7295989990234400,-10.3715496063232420,23.5366401672363280,28.6952495574951170,59,125,71,66,50,1582,2148407085,2149244032,2150206482,2147837120,2147821220,2148405193,2149152384,2148340361,327,8,12,51612
1352913864,5804,90.4199981689453100,23.5328998565673830,36.3521003723144500,245.6685943603515600,-10.1925601959228520,23.5310707092285160,28.7000904083251950,58,135,72,67,50,1582,2148555026,2149460672,2150571894,2147852489,2147911862,2148549449,2149362523,2148358363,444,8,12,24295
1352913919,5805,87.8399963378906200,23.5319995880126950,36.3479003906250000,245.3789062500000000,-10.1459398269653320,23.5296192169189450,28.7132701873779300,59,134,73,66,50,1579,2148715849,2149687597,2150946880,2147868315,2148015341,2148705627,2149598345,2148383387,546,8,12,26526
1352913974,5803,85.0899963378906200,23.5648994445800780,36.3427009582519500,244.5059967041015600,-11.3503999710083000,23.5671195983886720,28.7365093231201170,60,130,72,66,50,1578,2148942985,2149999003,2151454656,2147900077,2148153920,2148903533,2149892827,2148410267,397,8,11,9666
1352914029,5803,82.4199981689453100,23.6172008514404300,36.3124008178710940,244.4951019287109400,-13.0635204315185550,23.6204795837402340,28.7157993316650400,63,143,74,67,50,1576,2149187364,2150331721,2151975972,2147929444,2148298368,2149112740,2150203254,2148440274,3358,6,12,18523
1352914086,5804,80.0199966430664000,23.6823997497558600,36.3007011413574200,244.6636962890625000,-14.9040002822875980,23.6778202056884770,28.6856098175048830,64,141,73,67,50,1575,2149431296,2150664054,2152488356,2147966564,2148448283,2149322953,2150510902,2148472685,2324,7,12,19749
1352914141,5802,78.0100021362304700,23.7588996887207030,36.2934989929199200,244.5852966308593800,-17.2992591857910160,23.7524890899658200,28.6592597961425780,62,143,74,68,49,1574,2149697389,2151014400,2153016393,2148005805,2148604388,2149527771,2150817270,2148508562,2709,7,12,27491
1352914207,5803,75.8899993896484400,23.7868995666503900,36.2885017395019500,244.8211059570312500,-18.2498798370361330,23.7821292877197270,28.6372299194335940,63,138,74,67,50,1575,2149909494,2151321691,2153496658,2148035328,2148752585,2149733997,2151135661,2148541184,2169,7,12,16552
1352914262,5805,74.2099990844726600,23.7966003417968750,36.2871017456054700,245.1855926513672000,-18.6030502319335940,23.7931404113769530,28.6168899536132800,61,143,74,69,50,1574,2150216192,2151721280,2154086884,2148089371,2148943478,2149982628,2151489325,2148581586,1811,7,12,59075
1352914328,5803,72.1600036621093800,23.7964000701904300,36.2873992919921900,245.4705963134765600,-18.6648101806640620,23.7950706481933600,28.6039695739746100,63,143,73,68,50,1572,2150529883,2152139721,2154715529,2148146989,2149145462,2150253440,2151885165,2148626852,1535,8,12,2847
1352914418,5805,68.6699981689453100,23.7964000701904300,36.2871017456054700,245.5908966064453000,-18.6461296081542970,23.7944908142089840,28.5988807678222660,61,143,74,68,50,1572,2151235245,2153039634,2155992557,2148279497,2149599899,2150827008,2152681929,2148731227,1461,7,12,25921
1352914473,5805,65.7699966430664000,23.7987003326416000,36.2873992919921900,245.6492004394531200,-18.6992301940917970,23.7961406707763670,28.5956897735595700,61,146,75,69,50,1570,2151794057,2153751341,2156998317,2148402130,2149963547,2151293330,2153324260,2148813979,1375,8,12,54229
1352914528,5803,62.7799987792968750,23.7975006103515620,36.2877006530761700,245.7996978759765600,-18.6940193176269530,23.7959804534912100,28.5892200469970700,61,143,73,68,50,1569,2152448438,2154563337,2158106980,2148554221,2150384886,2151817042,2154023149,2148917952,1599,8,12,19080
1352914583,5804,59.7999992370605500,23.7966003417968750,36.2879981994628900,245.9479064941406200,-18.6761207580566400,23.7954196929931640,28.5829505920410160,61,145,75,68,49,1570,2153277430,2155557549,2159446208,2148757787,2150905792,2152440813,2154850752,2149048932,1744,8,12,28576
1352914638,5808,56.5800018310546900,23.7963008880615230,36.2876014709472660,245.8807067871093800,-18.6597003936767580,23.7949104309082030,28.5862102508544920,61,141,74,68,49,1568,2154156754,2156619328,2160865325,2149002240,2151484251,2153140032,2155768777,2149193179,1800,8,12,42677
1352914779,5804,49.4099998474121100,23.7973003387451170,36.2881011962890600,246.1138000488281200,-18.7135906219482420,23.7965908050537100,28.5754795074462900,61,152,73,68,49,1568,2157202185,2160209545,2165579446,2149929984,2153446089,2155463634,2158720859,2149727469,1522,8,12,27301
1352914815,5804,47.1399993896484400,23.7968006134033200,36.2882003784179700,246.0563964843750000,-18.7184104919433600,23.7967395782470700,28.5777492523193360,62,145,75,67,49,1568,2158542518,2161775698,2167574610,2150391497,2154301979,2156448603,2159930386,2149973211,1485,7,11,55161
1352914848,5805,44.9099998474121100,23.7973995208740230,36.2883987426757800,246.2422943115234400,-18.7345409393310550,23.7972393035888670,28.5694599151611330,62,144,74,69,50,1569,2160044352,2163473563,2169702912,2150970468,2155280484,2157559890,2161285430,2150272146,1359,8,12,14252
1352914881,5806,42.6899986267089840,23.7963008880615230,36.2878990173339840,246.2810974121093800,-18.7488002777099600,23.7976894378662100,28.5678005218505860,62,142,75,69,49,1568,2161645933,2165263899,2171922166,2151653979,2156308196,2158708955,2162649636,2150593380,1277,8,12,804
1352914914,5802,40.4000015258789060,23.7964000701904300,36.2886009216308600,246.1690063476562500,-18.6873302459716800,23.7957706451416000,28.5732307434082030,62,143,73,69,50,1569,2163859099,2167741120,2175015305,2152588873,2157691894,2160249161,2164443748,2151034532,1202,8,12,34845
1352914947,5803,38.0099983215332000,23.7970008850097660,36.2886009216308600,246.0771942138672000,-18.7554893493652340,23.7978992462158200,28.5764198303222660,62,142,73,67,50,1570,2166103113,2170209581,2177933650,2153606875,2159146358,2161828562,2166278765,2151522752,967,7,12,31496
1352914980,5806,35.7400016784668000,23.7970008850097660,36.2882003784179700,246.1694946289062500,-18.7540092468261720,23.7978496551513670,28.5724906921386720,62,142,73,67,50,1564,2168081490,2172436672,2180711570,2154514788,2160468114,2163306029,2168019236,2151956416,893,7,11,62064
1352915013,5801,33.6300010681152340,23.7970008850097660,36.2882003784179700,246.2660980224609400,-18.7518501281738280,23.7977790832519530,28.5682601928710940,62,143,73,68,49,1568,2170277988,2174818038,2183452242,2155721737,2161905152,2164838921,2169704530,2152471140,798,8,12,49300
1352915046,5803,31.6599998474121100,23.7968006134033200,36.2876014709472660,246.3838958740234400,-18.7512607574462900,23.7977600097656250,28.5632591247558600,63,142,74,69,50,1566,2172434267,2177066669,2186110966,2156888548,2163347218,2166359625,2171426898,2152998162,826,8,12,33735
1352915079,5804,29.8199996948242200,23.7961006164550780,36.2888984680175800,246.4627990722656200,-18.7596206665039060,23.7980308532714840,28.5596294403076170,63,142,75,67,50,1565,2175397449,2180234642,2189850468,2158451117,2165262427,2168361124,2173607305,2153720493,945,7,11,56026
1352915143,5800,26.5300006866455080,23.7954998016357420,36.2882995605468750,246.4113006591797000,-18.7694492340087900,23.7983303070068360,28.5618095397949220,63,142,75,67,49,1564,2180482176,2185409472,2195640777,2161709120,2168543222,2171707821,2177223798,2155046491,1191,6,12,57035
